Satellite: FENGYUN 1D
Catalog number: 27431
Epoch time:      103055.98489862
Element set:     227 
Inclination:       98.7690 deg
RA of node:       104.7946 deg
Eccentricity:    0.0016183
Arg of perigee:   105.6086 deg
Mean anomaly:     254.6870 deg
Mean motion:   14.09177991 rev/day
Decay rate:   -1.0700E-006 rev/day^2
Epoch rev:            4027
Checksum:              327

Satellite: NOAA 17
Catalog number: 27453
Epoch time:      103055.96283402
Element set:     319 
Inclination:       98.7548 deg
RA of node:       127.1399 deg
Eccentricity:    0.0011462
Arg of perigee:   342.5469 deg
Mean anomaly:      17.5313 deg
Mean motion:   14.23297611 rev/day
Decay rate:    2.3600E-006 rev/day^2
Epoch rev:            3487
Checksum:              312

Satellite: HOT BIRD 6
Catalog number: 27499
Epoch time:      103051.87535221
Element set:     69 
Inclination:        0.0841 deg
RA of node:       289.4691 deg
Eccentricity:    0Arg of perigee:    81.8198 deg
Mean anomaly:     107.1356 deg
Mean motion:    1.00273966 rev/day
Decay rate:    8.1000E-007 rev/day^2
Epoch rev:             185
Checksum:              293

Satellite: RUBIN 2
Catalog number: 27605
Epoch time:      103055.90098690
Element set:     67 
Inclination:       64.5545 deg
RA of node:       178.0116 deg
Eccentricity:    0.0035970
Arg of perigee:   111.3578 deg
Mean anomaly:     249.1364 deg
Mean motion:   14.71383335 rev/day
Decay rate:    5.6399E-006 rev/day^2
Epoch rev:             974
Checksum:              325


Read previous mail | Read next mail


 12.09.2026 01:49:20lGo back Go up